Showing default

TJS-16, 63397

Orbit data source: Space-Track

TJS-16, 63397 is a payload satellite owned by PLA SSF (CN) in GEO that was launched on Sat, 29 Mar 2025 UTC via a CHANG ZHENG 7A launch vehicle from the Wenchang Satellite Launch Center (WSC). Payload-class satellites include a variety of spacecraft equipped with specific instruments for various scientific and technological missions. These include communications satellites like Starlink; space stations such as the ISS; scientific satellites like the Hubble; Earth observation satellites from companies like Planet Labs, Umbra, and HawkEye 360; GPS; miniature CubeSats for education and research; and military/defense satellites.

Not visible in the next 10 days
Identifier
63397, 2025-064A
Orbit
GEO
Country
Flag of CNCN / PRC
Related business
Manufacturer
SISE
Mission
Operational Defense Technology
Bus & Motor
FY-4?, LAE
Mass
~5,000 kg wet, ~2,500 kg dry
Launch date (UTC)
2025-03-29 (1 year ago)
Launch vehicle
CHANG ZHENG 7A
Launch site
Wenchang Satellite Launch Center (WSC)
Object type
Payload
Rocket body
Debris
Shape & HBR
Box + 2 Pan, 22.5 m
Radar Cross Section
34.063 m², Large (>1 m²)

Expand to show TLE details & history
Last TLE update: 22 hours ago

TLE from 22 hours ago
0 TJS-16
1 63397U 25064A   26194.76445146 -.00000111  00000-0  00000+0 0  9997
2 63397   1.1643  81.2920 0002489 290.3397 355.8257  1.00270806  4657
Epoch: 2026-07-13T18:20Z
TLE epoch observation values (Epoch: 2026-07-13T18:20:48.606Z)
Latitude
-1.13255°
Longitude
160.6273°
Altitude
35,776.103 km
Speed
3.075 km/s
True Right ascension
00h 29m 53s
True Declination
-1° 07' 53"
Sunlit
Object was in daylight at epoch
Visualization orbit readout
Latitude
Unknown
Longitude
Unknown
Altitude
Unknown
Speed
Unknown
Apparent Right ascension
Unknown
Apparent Declination
Unknown
Sunlit
N/A
Visualization observer readout
Local Sidereal Time
04:23:12
Azimuth
Unknown
Elevation
Unknown
Doppler factor
Unknown
Orbital elements
Apogee altitude
35,798.434 km
Perigee altitude
35,777.444 km
Semi-major axis
42,166.076 km
Eccentricity
0.00025
Inclination
1.1643°
RAAN
81.292°
Arg. of periapsis
290.3397°
True anomaly
355.82362°
Mean anomaly
355.8257°
Eccentric anomaly
355.82466°
Mean motion
0.25067 °/min
Orbital period
1,436.16 mins
BSTAR
0
Loading maneuver chart data...
Computing Atmospheric mass density...
Loading historical data...
Loading historical data...
Loading historical data...
Loading historical data...
Loading historical data...
Loading historical data...
Loading historical data...
Other satellites on launch #64 in the year 2025 (2025-03-29 UTC)

Documentation

Showing up to 5 results
|